K4MRR Pensacola FL US current weather conditions

sailwx.info

Wind from 336 at 0 knots gusting 3

Air temperature 2.2° C
Dewpoint -2.1° C

Last reported at 2020-Jan-21 16:00 UTC.
Time now 2020-Jan-21 16:49 UTC

Location: N 30°20' W 087°23'.
View on Google Maps.

See reports from other nearby stations

  
Tides and Currents Weather Stations Pressure Air Temp Water Temp Dewpoint Dewpoint Depression Visibility Wind Speed Wind Dir Waves Ship Positions
date/time (UTC)wind fromknots sea level pressurealtimeterstation pressurevisibilityair tempwater tempwave heightnotes
2020-Jan-21 16:00 336 0 gusting 3 2.2
2020-Jan-21 15:45 013 1 gusting 5 1.7
2020-Jan-21 15:30 333 1.7
2020-Jan-21 15:15 019 1.1
2020-Jan-21 15:00 034 1.1
2020-Jan-21 14:45 360 2 gusting 6 0.6
2020-Jan-21 14:30 321 -0.0
2020-Jan-21 14:15 017 0 gusting 5 -0.0
2020-Jan-21 14:00 355 0 gusting 4 -0.6
2020-Jan-21 13:45 019 -0.6
2020-Jan-21 13:30 340 -1.1
2020-Jan-21 13:15 009 -1.1
2020-Jan-21 13:00 360 -1.1
2020-Jan-21 12:45 337 -1.1
2020-Jan-21 12:30 333 -1.1
2020-Jan-21 12:15 339 -1.1
2020-Jan-21 12:00 355 -0.6
2020-Jan-21 11:45 344 -0.6
2020-Jan-21 11:30 322 -0.6
2020-Jan-21 11:15 355 -0.6
2020-Jan-21 11:00 326 -0.6
2020-Jan-21 10:45 317 -0.6
2020-Jan-21 10:30 334 -0.6
2020-Jan-21 10:15 338 -0.0
2020-Jan-21 10:00 323 -0.0
2020-Jan-21 09:45 339 -0.0
2020-Jan-21 09:30 026 0.6
2020-Jan-21 09:15 360 0.6
2020-Jan-21 09:00 350 0.6
2020-Jan-21 08:45 328 0.6
2020-Jan-21 08:30 012 0.6
2020-Jan-21 08:15 016 0.6
2020-Jan-21 08:00 342 1.1
2020-Jan-21 07:45 016 1.1
2020-Jan-21 07:30 345 1.1
2020-Jan-21 07:15 350 1.7
2020-Jan-21 07:00 019 1.7
2020-Jan-21 06:45 350 1.7
2020-Jan-21 06:30 005 2.2
2020-Jan-21 06:15 355 2.2
2020-Jan-21 06:00 335 2.2
2020-Jan-21 05:45 344 2.2
2020-Jan-21 05:30 329 2.2
2020-Jan-21 05:15 014 2.2
2020-Jan-21 05:00 014 2.2
2020-Jan-21 04:45 342 2.2
2020-Jan-21 04:30 342 2.8
2020-Jan-21 04:15 355 2.8
2020-Jan-21 04:00 302 2.8
2020-Jan-21 03:45 290 3.3
2020-Jan-21 03:30 277 3.3
2020-Jan-21 03:15 010 3.9
2020-Jan-21 03:00 351 4.4
2020-Jan-21 02:45 342 4.4
2020-Jan-21 02:30 287 4.4
2020-Jan-21 02:15 355 5.0
2020-Jan-21 02:00 005 5.0
2020-Jan-21 01:45 322 5.0
2020-Jan-21 01:30 009 5.6
2020-Jan-21 01:15 277 5.6
2020-Jan-21 01:00 355 6.1
2020-Jan-21 00:45 344 6.1
2020-Jan-21 00:30 338 6.1
2020-Jan-21 00:15 360 6.1
2020-Jan-21 00:00 309 0 gusting 1 6.1
2020-Jan-20 23:45 026 6.7
2020-Jan-20 23:30 005 7.2
2020-Jan-20 23:15 355 7.2
2020-Jan-20 23:00 325 1 gusting 2 7.8
2020-Jan-20 22:45 009 8.9
2020-Jan-20 22:30 316 9.4
2020-Jan-20 22:15 355 1 gusting 4 9.4
2020-Jan-20 22:00 298 10.0
2020-Jan-20 21:45 340 3 gusting 5 10.0
2020-Jan-20 21:30 305 2 gusting 5 10.0
2020-Jan-20 21:15 017 1 gusting 5 10.0
2020-Jan-20 21:00 009 1 gusting 9 10.0
2020-Jan-20 20:45 005 0 gusting 3 10.0
2020-Jan-20 20:30 320 2 gusting 6 10.0
2020-Jan-20 20:15 360 2 gusting 5 10.0
2020-Jan-20 20:00 005 0 gusting 5 10.0
2020-Jan-20 19:45 284 9.4
2020-Jan-20 19:30 274 2 gusting 4 9.4
2020-Jan-20 19:15 304 9.4
2020-Jan-20 19:00 350 3 gusting 4 8.9
2020-Jan-20 18:45 304 8.9
2020-Jan-20 18:30 331 0 gusting 4 8.9
2020-Jan-20 18:15 012 0 gusting 4 8.3
2020-Jan-20 18:00 046 2 gusting 9 8.3
2020-Jan-20 17:45 016 8.3
2020-Jan-20 17:30 316 1 gusting 5 7.2
2020-Jan-20 17:15 321 1 gusting 5 7.2
2020-Jan-20 17:00 330 2 gusting 5 6.7
2020-Jan-20 16:45 302 0 gusting 7 6.7
2020-Jan-20 16:30 360 6.7
2020-Jan-20 16:15 005 5.6
2020-Jan-20 16:00 046 2 gusting 4 5.6
2020-Jan-20 15:45 005 5.0
2020-Jan-20 15:30 336 4 gusting 4 4.4
2020-Jan-20 15:15 017 2 gusting 4 3.9
2020-Jan-20 15:00 319 3.9
2020-Jan-20 14:45 321 1 gusting 5 3.3
2020-Jan-20 14:30 304 3.3
2020-Jan-20 14:15 344 3.3
2020-Jan-20 14:00 355 2.8
2020-Jan-20 13:45 360 2.2
2020-Jan-20 13:30 009 2.2
2020-Jan-20 13:15 327 1.7
2020-Jan-20 13:00 314 2.2
2020-Jan-20 12:45 355 2.2
2020-Jan-20 12:30 355 2.2
2020-Jan-20 12:15 351 2.2
2020-Jan-20 12:00 351 2.8
2020-Jan-20 11:45 360 2.8
2020-Jan-20 11:30 355 2.8
2020-Jan-20 11:15 342 2.8
2020-Jan-20 11:00 355 2.8
2020-Jan-20 10:45 348 2.8
2020-Jan-20 10:30 329 3.3
2020-Jan-20 10:15 329 3.3
2020-Jan-20 10:00 347 3.3
2020-Jan-20 09:45 310 3.3
2020-Jan-20 09:30 333 3.9
2020-Jan-20 09:15 355 3.9
2020-Jan-20 09:00 340 3.9
2020-Jan-20 08:45 345 3.9
2020-Jan-20 08:30 347 4.4
2020-Jan-20 08:15 005 4.4
2020-Jan-20 08:00 339 5.0
2020-Jan-20 07:45 339 5.0
2020-Jan-20 07:30 342 5.0
2020-Jan-20 07:15 342 5.6
2020-Jan-20 07:00 018 5.6
2020-Jan-20 06:45 340 6.1
2020-Jan-20 06:30 317 2 gusting 3 6.1
2020-Jan-20 06:15 328 6.1
2020-Jan-20 06:00 325 5.6
2020-Jan-20 05:45 014 0 gusting 0 5.6
2020-Jan-20 05:30 360 5.6
2020-Jan-20 05:15 314 5.6
2020-Jan-20 05:00 325 5.6
2020-Jan-20 04:45 342 6.1
2020-Jan-20 04:30 345 6.1
2020-Jan-20 04:15 345 6.1
2020-Jan-20 04:00 014 6.7
2020-Jan-20 03:45 326 6.7
2020-Jan-20 03:30 360 7.2
2020-Jan-20 03:15 344 7.2
2020-Jan-20 03:00 355 7.2
2020-Jan-20 02:45 340 7.8
2020-Jan-20 02:30 319 0 gusting 3 7.8
2020-Jan-20 02:15 350 7.8
2020-Jan-20 02:00 338 8.3
2020-Jan-20 01:45 338 8.3
2020-Jan-20 01:30 360 8.3
2020-Jan-20 01:15 327 8.3
2020-Jan-20 01:00 337 8.9
2020-Jan-20 00:45 344 2 gusting 3 8.9
2020-Jan-20 00:30 321 8.9
2020-Jan-20 00:15 005 9.4
2020-Jan-20 00:00 342 9.4
2020-Jan-19 23:45 331 9.4
2020-Jan-19 23:30 336 10.0
2020-Jan-19 23:15 333 10.6
2020-Jan-19 23:00 328 11.1
2020-Jan-19 22:45 321 11.7
2020-Jan-19 22:30 279 2 gusting 7 12.8
2020-Jan-19 22:15 331 13.3
2020-Jan-19 22:00 330 4 gusting 4 13.3
2020-Jan-19 21:45 280 12.8
2020-Jan-19 21:30 021 13.3
2020-Jan-19 21:15 355 1 gusting 4 13.3
2020-Jan-19 21:00 345 1 gusting 4 12.8
2020-Jan-19 20:45 331 12.2
2020-Jan-19 20:30 005 11.7
2020-Jan-19 20:15 343 1 gusting 2 11.7
2020-Jan-19 20:00 339 0 gusting 4 11.1
2020-Jan-19 19:45 355 11.1
2020-Jan-19 19:30 338 0 gusting 6 11.1
2020-Jan-19 19:15 005 1 gusting 6 11.1
2020-Jan-19 19:00 360 0 gusting 6 11.1
2020-Jan-19 18:45 005 11.1
2020-Jan-19 18:30 264 11.1
2020-Jan-19 18:15 346 5 gusting 7 11.1
2020-Jan-19 18:00 344 1 gusting 6 11.1
2020-Jan-19 17:45 009 0 gusting 6 10.6
2020-Jan-19 17:30 349 10.6
2020-Jan-19 17:15 319 0 gusting 7 10.0
2020-Jan-19 17:00 346 10.6
2020-Jan-19 16:45 281 1 gusting 6 10.0
2020-Jan-19 16:30 339 1 gusting 6 10.0
2020-Jan-19 16:15 022 4 gusting 6 10.0
2020-Jan-19 16:00 360 4 gusting 5 10.0